• In United Kingdom
  • List of Countries
  • For 7 days
  • Water Temperature
  • Satellite Maps
  • Weather Map
  • Weather Widgets
  • user-avatar
    Login

    Hourly Weather Kalgoorlie

    Today, 23 July, Sunday

    Time Temperature Precipitation Wind Pressure Humidity
    00:00 +12°C° 0 mm 1 mps 732 mmHg 82%
    01:00 +12°C° 0 mm 1 mps 732 mmHg 84%
    02:00 +11°C° 0 mm 1 mps 732 mmHg 87%
    03:00 +11°C° 0 mm 1 mps 731 mmHg 87%
    04:00 +11°C° 0 mm 1 mps 731 mmHg 87%
    05:00 +11°C° 0 mm 1 mps 731 mmHg 87%
    06:00 +12°C° 0 mm 2 mps 732 mmHg 84%
    07:00 +12°C° 0 mm 2 mps 732 mmHg 82%
    08:00 +12°C° 0 mm 3 mps 732 mmHg 79%
    09:00 +14°C° 0 mm 4 mps 732 mmHg 70%
    10:00 +16°C° 0 mm 5 mps 732 mmHg 61%
    11:00 +19°C° 0 mm 5 mps 732 mmHg 53%
    12:00 +19°C° 0 mm 6 mps 731 mmHg 49%
    13:00 +20°C° 0 mm 7 mps 730 mmHg 45%
    14:00 +21°C° 0 mm 7 mps 730 mmHg 41%
    15:00 +20°C° 0 mm 6 mps 730 mmHg 41%
    16:00 +19°C° 0 mm 5 mps 730 mmHg 42%
    17:00 +19°C° 0 mm 5 mps 730 mmHg 42%
    18:00 +18°C° 0 mm 4 mps 730 mmHg 45%
    19:00 +17°C° 0 mm 4 mps 730 mmHg 48%
    20:00 +15°C° 0 mm 4 mps 730 mmHg 51%
    21:00 +14°C° 0 mm 4 mps 730 mmHg 53%
    22:00 +13°C° 0 mm 4 mps 731 mmHg 56%
    23:00 +13°C° 0 mm 4 mps 731 mmHg 58%

    Tomorrow, 24 July, Monday

    Time Temperature Precipitation Wind Pressure Humidity
    00:00 +12°C° 0 mm 4 mps 731 mmHg 65%
    01:00 +12°C° 0 mm 4 mps 731 mmHg 72%
    02:00 +11°C° 0 mm 3 mps 731 mmHg 78%
    03:00 +11°C° 0 mm 3 mps 731 mmHg 83%
    04:00 +10°C° 0 mm 3 mps 731 mmHg 87%
    05:00 +10°C° 0 mm 3 mps 731 mmHg 92%
    06:00 +10°C° 0 mm 3 mps 731 mmHg 91%
    07:00 +10°C° 0 mm 3 mps 732 mmHg 90%
    08:00 +10°C° 0 mm 3 mps 732 mmHg 89%
    09:00 +12°C° 0 mm 3 mps 732 mmHg 79%
    10:00 +14°C° 0 mm 3 mps 732 mmHg 69%
    11:00 +16°C° 0 mm 3 mps 732 mmHg 58%
    12:00 +17°C° 0 mm 4 mps 732 mmHg 56%
    13:00 +17°C° 0 mm 4 mps 731 mmHg 53%
    14:00 +17°C° 0 mm 5 mps 730 mmHg 50%
    15:00 +18°C° 0 mm 4 mps 730 mmHg 51%
    16:00 +17°C° 0 mm 4 mps 731 mmHg 52%
    17:00 +17°C° 0 mm 4 mps 731 mmHg 53%
    18:00 +15°C° 0 mm 4 mps 731 mmHg 55%
    19:00 +15°C° 0 mm 4 mps 732 mmHg 56%
    20:00 +15°C° 0 mm 4 mps 732 mmHg 58%
    21:00 +14°C° 0 mm 3 mps 732 mmHg 59%
    22:00 +13°C° 0 mm 3 mps 732 mmHg 60%
    23:00 +14°C° 0 mm 2 mps 733 mmHg 61%

    Day after tomorrow, 25 July, Tuesday

    Time Temperature Precipitation Wind Pressure Humidity
    00:00 +13°C° 0 mm 2 mps 732 mmHg 63%
    01:00 +12°C° 0 mm 2 mps 732 mmHg 65%
    02:00 +12°C° 0 mm 2 mps 732 mmHg 68%
    03:00 +10°C° 0 mm 2 mps 732 mmHg 70%
    04:00 +10°C° 0 mm 2 mps 732 mmHg 73%
    05:00 +9°C° 0 mm 3 mps 733 mmHg 75%
    06:00 +10°C° 0 mm 2 mps 733 mmHg 75%
    07:00 +10°C° 0 mm 2 mps 733 mmHg 75%
    08:00 +10°C° 0 mm 2 mps 734 mmHg 75%
    09:00 +13°C° 0 mm 2 mps 734 mmHg 67%
    10:00 +14°C° 0 mm 2 mps 734 mmHg 59%
    11:00 +16°C° 0 mm 2 mps 734 mmHg 51%
    12:00 +17°C° 0 mm 2 mps 733 mmHg 47%
    13:00 +18°C° 0 mm 2 mps 733 mmHg 43%
    14:00 +19°C° 0 mm 3 mps 732 mmHg 38%
    15:00 +18°C° 0 mm 2 mps 732 mmHg 39%
    16:00 +18°C° 0 mm 2 mps 732 mmHg 41%
    17:00 +18°C° 0 mm 2 mps 732 mmHg 42%
    18:00 +17°C° 0 mm 2 mps 732 mmHg 44%
    19:00 +16°C° 0 mm 2 mps 732 mmHg 47%
    20:00 +15°C° 0 mm 2 mps 733 mmHg 49%
    21:00 +15°C° 0 mm 2 mps 732 mmHg 50%
    22:00 +15°C° 0 mm 2 mps 732 mmHg 50%
    23:00 +13°C° 0 mm 3 mps 732 mmHg 51%

    26 July, Wednesday

    Time Temperature Precipitation Wind Pressure Humidity
    00:00 +13°C° 0 mm 3 mps 732 mmHg 52%
    01:00 +13°C° 0 mm 3 mps 731 mmHg 53%
    02:00 +12°C° 0 mm 4 mps 731 mmHg 54%
    03:00 +12°C° 0 mm 3 mps 731 mmHg 56%
    04:00 +12°C° 0 mm 3 mps 731 mmHg 57%
    05:00 +11°C° 0 mm 3 mps 731 mmHg 59%
    06:00 +12°C° 0 mm 3 mps 731 mmHg 59%
    07:00 +12°C° 0 mm 4 mps 731 mmHg 59%
    08:00 +13°C° 0 mm 4 mps 732 mmHg 59%
    09:00 +15°C° 0 mm 4 mps 731 mmHg 53%
    10:00 +17°C° 0 mm 5 mps 731 mmHg 46%
    11:00 +21°C° 0 mm 6 mps 731 mmHg 39%
    12:00 +22°C° 0 mm 6 mps 731 mmHg 34%
    13:00 +22°C° 0 mm 6 mps 730 mmHg 29%
    14:00 +23°C° 0 mm 7 mps 730 mmHg 24%
    15:00 +22°C° 0 mm 6 mps 730 mmHg 27%
    16:00 +21°C° 0 mm 5 mps 730 mmHg 29%
    17:00 +21°C° 0 mm 4 mps 730 mmHg 31%
    18:00 +20°C° 0 mm 4 mps 731 mmHg 37%
    19:00 +18°C° 0 mm 4 mps 731 mmHg 42%
    20:00 +17°C° 0 mm 4 mps 732 mmHg 48%
    21:00 +17°C° 0 mm 4 mps 732 mmHg 58%
    22:00 +16°C° 0 mm 3 mps 732 mmHg 67%
    23:00 +14°C° 0 mm 3 mps 732 mmHg 76%

    27 July, Thursday

    Time Temperature Precipitation Wind Pressure Humidity
    00:00 +14°C° 0 mm 4 mps 732 mmHg 81%
    01:00 +13°C° 0 mm 4 mps 732 mmHg 85%
    02:00 +13°C° 0 mm 4 mps 732 mmHg 90%
    03:00 +12°C° 0 mm 4 mps 732 mmHg 91%
    04:00 +11°C° 0 mm 3 mps 732 mmHg 92%
    05:00 +11°C° 0 mm 3 mps 732 mmHg 93%
    06:00 +12°C° 0 mm 2 mps 733 mmHg 89%
    07:00 +12°C° 0 mm 2 mps 733 mmHg 84%
    08:00 +12°C° 0 mm 1 mps 733 mmHg 80%
    09:00 +14°C° 0 mm 2 mps 733 mmHg 71%
    10:00 +16°C° 0 mm 3 mps 733 mmHg 63%
    11:00 +18°C° 0 mm 4 mps 732 mmHg 54%
    12:00 +19°C° 0 mm 4 mps 732 mmHg 52%
    13:00 +20°C° 0 mm 5 mps 731 mmHg 49%
    14:00 +21°C° 0 mm 6 mps 730 mmHg 47%
    15:00 +21°C° 0 mm 5 mps 730 mmHg 46%
    16:00 +21°C° 0 mm 4 mps 730 mmHg 46%
    17:00 +21°C° 0 mm 4 mps 730 mmHg 45%
    18:00 +20°C° 0 mm 4 mps 731 mmHg 46%
    19:00 +19°C° 0 mm 4 mps 731 mmHg 48%
    20:00 +19°C° 0 mm 4 mps 731 mmHg 49%
    21:00 +18°C° 0 mm 4 mps 730 mmHg 49%
    22:00 +18°C° 0 mm 4 mps 730 mmHg 50%
    23:00 +17°C° 0 mm 4 mps 730 mmHg 50%

    28 July, Friday

    Time Temperature Precipitation Wind Pressure Humidity
    00:00 +17°C° 0 mm 4 mps 730 mmHg 52%
    01:00 +15°C° 0 mm 4 mps 729 mmHg 53%
    02:00 +15°C° 0 mm 4 mps 729 mmHg 54%
    03:00 +14°C° 0 mm 4 mps 729 mmHg 58%
    04:00 +14°C° 0 mm 4 mps 729 mmHg 62%
    05:00 +13°C° 0 mm 4 mps 729 mmHg 66%
    06:00 +14°C° 0 mm 5 mps 729 mmHg 68%
    07:00 +14°C° 0 mm 5 mps 729 mmHg 70%
    08:00 +14°C° 0 mm 6 mps 729 mmHg 71%
    09:00 +16°C° 0 mm 7 mps 729 mmHg 61%
    10:00 +20°C° 0 mm 8 mps 729 mmHg 51%
    11:00 +22°C° 0 mm 9 mps 729 mmHg 40%
    12:00 +22°C° 0 mm 9 mps 728 mmHg 37%
    13:00 +23°C° 0 mm 9 mps 727 mmHg 34%
    14:00 +24°C° 0 mm 10 mps 726 mmHg 30%
    15:00 +23°C° 0 mm 9 mps 726 mmHg 32%
    16:00 +23°C° 0 mm 8 mps 726 mmHg 33%
    17:00 +22°C° 0 mm 7 mps 726 mmHg 34%
    18:00 +21°C° 0 mm 7 mps 726 mmHg 36%
    19:00 +20°C° 0 mm 7 mps 726 mmHg 37%
    20:00 +18°C° 0 mm 7 mps 726 mmHg 39%
    21:00 +18°C° 0 mm 7 mps 725 mmHg 43%
    22:00 +17°C° 0 mm 7 mps 725 mmHg 47%
    23:00 +17°C° 0 mm 7 mps 725 mmHg 50%
    Show more